User: anonymous   Login
Location: Rancho Del Sol Observatory
(38.7214°N, 120.6350°W)
Time: 18:33:53
(UTC-07:00)
Language:

Cosmos 2221 Rocket - Orbit

View from above orbital plane
View from above orbital plane
View from above satellite
View from above satellite

Ground track
Ground track

The orbit data is extracted from the following two-line orbital elements,

1 22237U 92080B   16175.87447178  .00000063  00000-0  55120-5 0  9998
2 22237  82.5131  91.0310 0018389 299.6087 124.8807 14.78267228270503
Epoch (UTC): 23 June 2016 20:59:14
Eccentricity: 0.0018389
inclination: 82.5131°
perigee height: 622 km
apogee height: 648 km
right ascension of ascending node: 91.0310°
argument of perigee: 299.6087°
revolutions per day: 14.78267228
mean anomaly at epoch: 124.8807°
orbit number at epoch: 27050

The dashed part of the orbit path shows where the satellite is in the earth's shadow,  

DLR